Temp
-2 -3 -2 -2 -2 -1 -1 1 2 2 0 -0 -0 1 0 1 1 3 4 4 4 4 4 4 4 4 5 5 5 3 4 4 4 5 5 6 6 6 6 6 5 5 5 5
-2 -2 -2 -2 -2 -1 -0 2 2 1 1 1 -0 -0 -1 2 2 2 4 5 4 4 4 4 3 4 4 4 4 2 4 4 4 4 5 5 5 6 5 5 5 5 5 5
-2 -2 -1 -2 -2 -1 0 1 2 1 -1 -1 -1 1 0 2 2 2 4 4 4 4 4 3 3 3 3 3 2 2 4 3 3 3 4 5 5 5 5 5 5 5 5 5
-2 -2 -2 -2 -2 -1 0 -0 -0 0 0 3 0 2 1 3 1 2 4 4 4 4 3 3 1 2 2 2 2 2 2 2 3 4 3 4 5 5 5 4 4 4 4 4
-2 -2 -3 -2 -1 -2 -1 -1 -1 0 1 1 2 2 3 1 2 2 3 4 4 4 4 3 3 3 3 3 2 3 2 1 1 3 3 2 3 4 5 5 4 3 3 3
-3 -2 -3 -3 -2 -2 -2 -1 -0 0 -0 1 3 2 3 2 2 3 3 2 4 4 4 3 3 3 3 3 3 4 2 2 1 2 3 3 3 3 3 4 4 3 2 2
-3 -3 -3 -3 -3 -2 -2 -1 -0 -0 0 2 0 1 3 2 2 2 2 2 2 4 4 4 4 4 4 3 3 2 2 2 3 3 4 4 3 4 4 5 4 3 2 2
-3 -2 -3 -3 -4 -3 -3 -2 -1 -0 2 4 0 2 2 1 2 1 1 1 1 2 3 4 4 4 4 3 4 4 4 3 3 3 3 3 3 4 4 3 3 2 2 2
-3 -2 -3 -4 -3 -4 -3 -3 -2 -2 1 2 3 2 1 1 1 1 1 1 1 2 3 3 3 3 4 4 3 4 3 3 3 3 3 3 3 3 3 2 3 3 3 3
-4 -4 -4 -4 -3 -3 -4 -4 -3 -2 -1 1 3 2 1 -0 -0 0 0 1 2 2 2 2 2 2 2 3 3 3 3 3 3 3 3 3 3 3 4 3 4 3 3 3
-5 -4 -3 -4 -4 -4 -4 -4 -4 -4 -3 -1 1 -0 -2 -1 0 1 1 2 2 2 3 2 2 2 2 2 2 2 3 2 3 3 3 3 3 3 3 3 3 3 3 3
-5 -5 -4 -3 -5 -5 -5 -5 -4 -3 -3 -2 -2 -2 -2 -1 1 1 1 2 2 2 2 2 2 2 2 2 1 2 2 2 3 3 3 3 3 3 3 3 3 3 3 3
-5 -5 -4 -3 -5 -5 -6 -5 -5 -5 -5 -3 -1 -2 -2 -2 -1 0 1 1 2 2 2 2 2 3 3 2 2 1 1 1 1 2 2 2 2 2 2 2 2 2 2 2
-5 -6 -6 -4 -6 -6 -6 -6 -6 -6 -5 -4 -2 -3 -2 -3 -3 -3 -1 -0 0 1 1 1 2 2 2 3 3 2 2 1 1 2 2 2 2 2 2 2 2 2 2 2
-5 -6 -6 -7 -7 -7 -7 -6 -5 -5 -5 -5 -4 -4 -3 -4 -3 -3 -3 -1 -0 -0 0 1 1 1 2 2 2 2 2 1 1 0 1 2 2 2 2 2 2 2 2 2
-4 -5 -5 -6 -7 -7 -6 -6 -5 -5 -5 -5 -5 -3 -3 -3 -3 -2 -3 -2 -2 -1 -0 -0 0 0 1 1 1 1 2 2 2 2 1 1 1 1 1 1 1 1 1 1
-4 -4 -5 -5 -5 -5 -4 -5 -5 -5 -5 -5 -5 -4 -4 -3 -3 -3 -2 -2 -2 -2 -2 -1 -1 -0 -0 -0 0 0 1 1 1 1 1 1 1 0 0 0 1 1 1 1
-4 -4 -4 -5 -4 -2 -5 -4 -5 -5 -5 -5 -5 -4 -5 -4 -4 -3 -3 -3 -3 -2 -2 -2 -1 -1 -1 -1 -0 -0 -0 -0 -0 0 0 0 0 0 0 1 1 1 0 0
-3 -4 -5 -4 -2 -3 -4 -4 -5 -5 -5 -5 -5 -5 -4 -4 -4 -3 -3 -3 -3 -2 -2 -2 -2 -3 -2 -1 -1 -0 -0 -0 -0 -0 -0 0 0 0 0 0 1 0 0 0
-3 -4 -4 -5 -4 -1 -3 -3 -4 -4 -5 -4 -5 -4 -4 -4 -4 -4 -3 -3 -3 -3 -3 -3 -3 -2 -2 -2 -1 -1 -1 -0 -0 -0 -0 -0 -0 -0 0 0 0 0 0 0
-3 -4 -5 -5 -4 -3 -2 -3 -4 -5 -4 -4 -4 -5 -5 -4 -4 -4 -4 -4 -4 -4 -4 -4 -4 -3 -3 -3 -2 -2 -2 -1 -1 -0 -0 -0 -0 -0 -0 -1 -1 -0 -0 -0
-3 -4 -4 -5 -5 -3 -2 -3 -4 -4 -4 -5 -4 -5 -5 -5 -5 -4 -4 -4 -4 -4 -4 -4 -5 -4 -4 -4 -4 -3 -3 -2 -2 -2 -1 -1 -1 -1 -1 -1 -1 -1 -1 -1
-3 -3 -4 -3 -3 -3 -3 -3 -3 -4 -4 -5 -5 -5 -6 -5 -5 -5 -5 -5 -5 -5 -5 -5 -5 -5 -5 -4 -4 -3 -3 -2 -2 -2 -2 -2 -2 -2 -2 -2 -2 -2 -2 -2
-2 -2 -3 -2 -2 -2 -3 -3 -3 -4 -4 -5 -5 -6 -6 -6 -6 -6 -5 -5 -5 -5 -5 -5 -5 -5 -4 -4 -4 -4 -3 -3 -2 -2 -2 -2 -2 -2 -2 -3 -3 -3 -3 -3
-3 -2 -2 -1 -2 -3 -3 -3 -3 -3 -4 -4 -4 -5 -6 -7 -6 -7 -6 -6 -5 -5 -5 -5 -5 -5 -5 -4 -4 -4 -4 -3 -3 -3 -3 -3 -3 -3 -3 -4 -4 -4 -4 -4
-0 -1 -1 -2 -2 -2 -2 -3 -3 -3 -3 -3 -4 -5 -6 -7 -7 -7 -6 -6 -6 -5 -5 -5 -5 -5 -5 -5 -5 -5 -4 -4 -4 -4 -4 -4 -5 -5 -5 -5 -5 -5 -4 -4
Height
3026 3025 3023 3022 3021 3018 3016 3014 3013 3012 3007 3009 3009 3006 3008 3008 3012 3016 3022 3027 3029 3035 3039 3043 3044 3048 3051 3057 3045 3068 3081 3086 3090 3095 3101 3107 3114 3121 3126 3132 3135 3139 3142 3146
3029 3024 3023 3021 3019 3017 3015 3013 3012 3009 3006 3006 3006 3005 3003 3007 3011 3015 3017 3023 3027 3033 3037 3041 3045 3046 3052 3055 3055 3062 3073 3082 3087 3094 3100 3106 3113 3118 3123 3128 3132 3135 3139 3142
3027 3025 3022 3020 3018 3018 3016 3013 3011 3012 3007 3004 3003 3000 3000 3004 3010 3013 3016 3020 3025 3031 3035 3036 3043 3046 3049 3053 3057 3058 3064 3062 3082 3089 3096 3102 3107 3112 3118 3124 3128 3132 3135 3139
3024 3022 3020 3020 3020 3019 3016 3013 3012 3011 3009 3005 3006 3001 2999 3000 3006 3011 3015 3019 3023 3030 3034 3036 3040 3046 3048 3051 3057 3060 3062 3068 3080 3084 3093 3100 3107 3112 3117 3121 3123 3127 3131 3134
3023 3020 3019 3019 3019 3017 3016 3013 3013 3011 3009 3007 3006 3006 2999 3002 3005 3009 3012 3017 3021 3024 3028 3032 3040 3046 3048 3050 3057 3062 3064 3066 3073 3087 3090 3094 3101 3107 3112 3117 3119 3123 3126 3128
3020 3018 3017 3016 3015 3015 3014 3013 3012 3011 3010 3007 3003 3006 3001 3004 3006 3010 3015 3017 3020 3025 3030 3033 3036 3041 3048 3053 3055 3056 3059 3067 3074 3079 3087 3091 3097 3102 3107 3112 3113 3114 3117 3120
3020 3018 3016 3015 3015 3014 3014 3013 3010 3011 3009 3003 3004 3005 3005 3006 3007 3009 3013 3018 3019 3023 3027 3030 3033 3039 3044 3050 3054 3056 3063 3068 3073 3077 3082 3087 3090 3099 3104 3105 3106 3107 3114 3114
3020 3018 3017 3015 3016 3014 3013 3014 3011 3005 3002 2998 3005 3006 3005 3008 3007 3009 3013 3016 3019 3022 3025 3028 3033 3039 3044 3048 3053 3055 3061 3066 3070 3073 3076 3083 3085 3094 3099 3098 3094 3107 3105 3099
3022 3020 3017 3016 3014 3015 3012 3012 3013 3012 3009 3005 3003 3008 3009 3006 3009 3011 3014 3015 3018 3020 3024 3029 3033 3037 3041 3045 3049 3053 3058 3063 3067 3069 3074 3078 3082 3085 3083 3084 3092 3097 3101 3103
3024 3021 3018 3016 3015 3014 3014 3014 3014 3013 3012 3006 3002 3007 3008 3009 3010 3012 3014 3016 3018 3022 3026 3029 3032 3036 3041 3042 3047 3052 3057 3062 3065 3069 3072 3076 3078 3081 3083 3087 3090 3094 3097 3100
3023 3024 3021 3019 3017 3016 3016 3015 3016 3015 3015 3010 3002 3014 3014 3012 3011 3010 3013 3016 3018 3020 3024 3026 3028 3035 3038 3040 3045 3049 3055 3059 3062 3066 3069 3072 3076 3079 3081 3084 3086 3090 3094 3097
3025 3024 3022 3019 3016 3016 3017 3017 3017 3017 3016 3015 3014 3020 3018 3014 3012 3012 3014 3015 3018 3021 3024 3026 3029 3032 3034 3037 3041 3045 3052 3056 3059 3062 3064 3067 3071 3073 3077 3079 3082 3085 3087 3089
3025 3024 3021 3017 3019 3017 3018 3019 3020 3019 3017 3016 3016 3019 3019 3018 3014 3013 3014 3014 3015 3018 3023 3025 3029 3030 3032 3034 3036 3041 3044 3048 3053 3057 3058 3063 3066 3069 3072 3072 3075 3079 3082 3084
3024 3023 3023 3022 3021 3021 3020 3020 3020 3019 3019 3019 3019 3019 3019 3019 3019 3019 3018 3018 3019 3021 3023 3025 3026 3026 3029 3033 3035 3037 3040 3042 3047 3052 3056 3059 3063 3065 3066 3068 3071 3073 3076 3078
3024 3023 3021 3021 3020 3019 3018 3017 3018 3019 3021 3021 3020 3019 3019 3020 3021 3021 3021 3019 3020 3022 3022 3023 3026 3026 3027 3029 3031 3033 3036 3043 3046 3049 3050 3053 3057 3059 3061 3065 3065 3067 3069 3071
3024 3024 3021 3020 3019 3018 3017 3018 3019 3020 3020 3018 3017 3017 3018 3018 3018 3021 3022 3022 3022 3022 3023 3024 3026 3027 3027 3031 3031 3033 3037 3037 3040 3042 3045 3048 3052 3055 3058 3059 3059 3060 3064 3066
3025 3024 3022 3023 3022 3021 3022 3021 3021 3021 3018 3017 3016 3017 3015 3015 3015 3016 3017 3019 3022 3023 3024 3025 3025 3025 3029 3028 3030 3031 3032 3034 3037 3039 3041 3044 3047 3051 3053 3053 3053 3054 3058 3060
3025 3024 3023 3024 3023 3021 3021 3020 3020 3019 3018 3017 3016 3015 3014 3013 3013 3013 3014 3016 3018 3019 3021 3021 3023 3026 3027 3028 3028 3031 3032 3033 3036 3037 3039 3041 3044 3045 3047 3048 3049 3051 3053 3054
3025 3024 3025 3025 3024 3024 3020 3020 3020 3018 3017 3014 3016 3015 3014 3013 3012 3012 3012 3014 3015 3016 3018 3020 3022 3023 3024 3026 3027 3029 3031 3032 3034 3034 3035 3036 3038 3040 3041 3043 3044 3046 3047 3048
3024 3024 3025 3024 3025 3021 3021 3019 3018 3017 3016 3013 3014 3015 3015 3014 3013 3010 3010 3010 3011 3012 3014 3016 3018 3020 3021 3022 3024 3026 3028 3030 3029 3028 3029 3030 3032 3033 3033 3034 3036 3039 3040 3041
3023 3023 3023 3024 3024 3021 3018 3019 3018 3019 3020 3014 3013 3013 3013 3012 3011 3009 3008 3007 3007 3007 3008 3010 3011 3012 3013 3015 3017 3019 3020 3020 3019 3020 3022 3023 3024 3025 3025 3026 3030 3032 3033 3033
3023 3022 3022 3022 3023 3021 3017 3018 3018 3017 3013 3012 3010 3009 3008 3007 3007 3007 3006 3005 3004 3005 3005 3004 3004 3005 3006 3008 3009 3010 3009 3009 3010 3013 3015 3014 3015 3017 3019 3018 3023 3025 3025 3026
3021 3020 3021 3020 3018 3016 3015 3014 3013 3012 3010 3008 3007 3003 3003 3002 3003 3003 3003 3003 3003 3003 3002 3002 3001 3001 3001 3002 3003 3003 3002 3002 3003 3003 3005 3007 3007 3008 3009 3012 3015 3015 3018 3018
3017 3016 3015 3016 3013 3013 3012 3012 3010 3008 3006 3003 3000 2997 2997 2996 2996 2996 2997 2998 2999 3000 3000 2999 2999 2999 2998 2998 2998 2998 2998 2998 2997 2997 2998 2997 2998 2999 3001 3004 3006 3007 3010 3011
3014 3013 3011 3010 3010 3010 3010 3008 3006 3005 3002 2998 2995 2992 2988 2987 2986 2988 2992 2993 2994 2996 2997 2997 2996 2996 2995 2995 2995 2994 2993 2992 2991 2990 2990 2990 2991 2993 2995 2997 2999 3001 3003 3005
3006 3006 3006 3007 3006 3006 3006 3005 3003 3001 2997 2995 2991 2986 2981 2978 2978 2980 2983 2986 2989 2991 2993 2993 2994 2993 2993 2992 2991 2991 2990 2989 2987 2987 2986 2987 2988 2989 2991 2993 2995 2996 2998 2999
Wind_Speed
8 11 7 6 8 13 11 10 15 9 20 19 13 17 15 16 20 18 34 33 31 26 19 18 15 13 18 28 35 42 39 34 36 40 42 43 44 44 43 41 39 36 33 30
8 12 7 11 10 9 7 8 8 8 15 16 10 12 14 16 16 15 25 31 31 29 25 22 18 19 16 41 36 45 44 36 33 33 36 38 41 43 42 41 39 36 34 32
12 9 12 9 9 8 6 8 6 8 8 9 11 12 16 26 16 19 21 26 28 28 27 22 16 20 25 42 35 48 50 36 30 31 33 36 38 40 41 39 38 35 33 33
10 13 14 10 10 9 13 4 6 7 5 4 5 5 15 20 20 22 22 25 28 30 25 30 17 10 11 25 40 39 33 34 32 27 29 33 34 37 37 39 34 32 28 28
7 10 7 11 10 10 8 7 8 9 9 11 3 5 8 16 24 21 20 26 26 26 22 18 15 11 15 15 14 16 53 31 32 29 30 30 30 33 38 39 35 31 31 29
12 15 13 10 13 12 11 7 7 6 6 5 1 2 10 9 16 19 20 17 26 26 26 24 22 18 20 23 14 12 30 45 31 24 31 41 39 34 33 40 42 38 39 34
7 4 10 10 9 9 10 10 3 3 3 2 5 3 6 3 4 17 19 18 16 26 26 25 27 27 26 25 20 14 21 17 18 17 13 46 34 36 38 44 58 57 47 54
6 2 5 6 5 7 9 11 7 4 2 1 3 1 4 5 5 8 15 17 19 23 21 21 22 24 27 30 23 17 23 25 24 29 29 17 36 50 40 32 19 42 14 10
7 3 10 5 7 7 6 6 8 7 5 3 4 2 10 13 4 7 13 21 23 24 25 25 28 27 27 27 27 27 28 27 27 23 22 22 26 29 26 19 22 20 19 17
6 7 7 5 7 5 6 10 3 4 3 4 6 1 11 12 7 2 2 14 17 19 25 29 33 29 28 25 23 22 24 23 23 22 20 18 18 19 18 19 20 20 21 23
6 4 4 7 4 8 7 4 5 6 4 3 2 8 10 10 6 1 5 9 11 13 17 15 34 35 29 25 27 24 27 26 26 25 22 21 21 21 21 21 20 22 23 23
5 4 8 10 7 4 4 7 8 4 6 3 4 7 13 15 8 5 4 4 8 10 12 19 25 28 31 34 39 27 26 30 30 29 27 24 23 22 23 24 26 27 26 25
5 4 6 3 2 6 5 7 7 6 4 3 4 4 14 17 16 7 3 4 6 8 9 9 13 15 18 21 29 33 36 37 27 28 26 24 21 21 22 22 24 25 26 27
6 3 3 6 8 9 10 7 7 5 3 8 4 2 10 16 17 13 6 6 7 8 10 10 9 9 12 15 15 27 34 30 32 32 30 26 25 23 23 23 24 26 29 30
3 3 5 4 5 6 9 8 6 7 2 3 7 10 10 11 11 9 5 5 9 10 10 10 10 10 10 10 12 10 18 28 29 28 26 25 24 22 21 21 22 23 23 25
3 3 5 8 6 2 2 2 3 5 8 11 10 8 7 12 12 5 3 4 6 8 9 9 8 9 9 12 12 12 16 20 22 22 24 25 25 25 25 25 24 24 24 24
3 4 3 3 5 5 6 2 1 3 4 7 8 8 13 12 14 15 11 13 12 12 10 9 10 10 9 8 9 10 12 16 18 20 22 25 26 27 27 27 26 25 25 25
1 3 3 2 3 1 3 1 1 3 4 4 5 6 7 7 9 14 17 16 17 18 16 14 13 12 12 11 11 11 11 12 13 15 16 17 19 20 21 20 19 20 21 22
2 1 2 2 3 2 5 6 2 3 9 7 3 5 6 6 5 7 11 17 16 23 22 22 22 21 19 18 17 17 16 16 17 17 19 21 23 24 25 26 26 26 24 23
4 3 0 2 2 2 2 4 6 8 9 5 8 6 6 6 3 13 11 13 16 18 23 27 26 26 27 27 28 28 27 28 26 27 28 29 29 30 31 31 30 30 29 30
4 4 4 4 4 5 8 4 4 2 5 8 11 11 10 9 10 10 9 7 10 14 20 24 24 28 29 29 31 33 34 35 35 36 37 37 37 34 34 33 32 32 32 32
4 3 3 4 4 4 5 6 4 9 15 17 18 17 17 16 14 13 12 12 11 10 10 10 12 23 22 24 24 26 29 31 32 33 33 33 32 31 30 30 32 32 32 32
5 9 4 7 6 9 10 9 12 14 17 19 20 22 21 20 20 18 17 17 16 14 12 11 12 13 12 19 19 20 21 23 24 26 27 28 29 28 28 29 27 27 28 28
14 15 13 9 7 9 10 11 13 15 18 21 21 21 20 22 22 23 22 20 17 16 14 12 12 14 15 17 19 21 21 20 21 22 25 25 26 27 27 26 24 25 25 25
17 15 13 14 15 13 12 11 13 16 18 18 21 25 24 22 24 24 22 23 20 19 17 14 15 16 16 18 17 17 18 18 17 18 20 22 22 24 23 23 23 23 23 24
15 20 20 14 12 12 10 12 13 16 16 16 18 21 20 16 17 21 22 22 21 19 20 17 16 17 19 17 15 15 16 16 14 14 15 16 15 17 19 20 20 21 23 25
Wind_Direction
299 290 265 274 288 293 280 262 263 240 243 271 273 286 221 187 209 208 203 211 220 220 216 219 228 235 222 215 185 177 194 192 196 195 196 196 198 198 198 201 204 208 211 215
280 285 286 270 305 299 287 275 267 264 270 273 268 284 227 224 197 211 205 206 215 208 212 216 216 213 202 188 192 176 189 190 192 196 200 201 204 204 205 208 211 213 219 222
264 281 275 272 301 302 289 282 287 290 283 284 304 273 214 212 198 211 213 205 211 216 216 205 214 194 201 197 202 180 199 170 189 194 201 203 205 208 211 213 216 219 224 228
269 253 271 278 288 294 296 286 280 298 289 315 325 327 195 194 192 211 221 212 212 210 216 226 240 238 257 204 199 189 192 179 187 194 204 206 211 215 217 218 219 222 226 230
276 289 291 277 278 274 286 297 294 284 281 309 249 273 145 190 195 201 214 215 214 214 224 231 225 236 238 246 281 235 212 199 190 211 215 215 218 218 221 220 218 220 225 231
271 279 278 266 272 267 268 275 270 274 277 274 331 281 137 205 209 196 197 220 222 222 219 227 230 233 236 241 235 259 218 202 201 219 224 228 229 225 230 232 222 221 225 225
323 310 285 288 302 275 259 277 249 218 234 286 35 283 350 352 217 207 190 195 208 223 221 221 232 229 229 228 229 229 221 235 215 227 251 226 226 230 255 256 246 232 245 237
348 324 10 315 302 286 297 260 266 273 296 144 91 240 40 356 196 217 202 186 202 215 219 217 224 226 224 226 220 218 229 226 235 231 231 204 214 227 235 235 231 232 273 214
338 338 316 356 310 307 314 268 272 305 297 326 140 159 75 48 54 206 202 215 217 217 218 225 228 227 228 222 215 222 230 233 230 235 228 224 228 237 228 233 226 217 227 220
330 309 310 322 347 339 317 315 295 230 260 231 141 131 50 28 23 101 140 192 214 225 227 233 232 224 217 215 208 215 221 218 222 226 226 226 228 226 229 233 229 227 228 229
331 312 323 332 356 341 344 21 341 344 306 317 341 66 20 23 42 144 180 197 200 213 223 232 212 215 218 215 222 217 224 225 225 230 234 240 240 239 239 240 242 244 244 241
311 302 307 325 310 337 55 45 29 10 359 326 304 69 46 37 34 81 154 201 190 189 193 217 220 226 232 240 232 234 226 234 232 236 240 242 245 248 248 248 248 251 252 252
320 322 311 216 24 45 54 40 30 344 18 343 346 94 39 49 46 76 120 177 185 190 205 200 209 222 227 230 228 231 234 228 230 237 242 244 248 249 250 248 247 248 249 253
326 306 272 297 310 299 296 307 328 351 4 334 330 303 51 34 38 42 96 154 177 187 192 206 210 211 219 226 232 232 233 232 227 231 237 242 250 250 248 247 249 251 251 252
344 329 347 319 319 306 266 269 285 282 310 304 321 309 293 341 355 44 61 149 182 186 182 194 205 217 223 220 227 228 217 216 224 229 235 238 242 243 242 249 251 251 251 251
44 24 28 29 359 45 147 227 272 292 293 282 297 311 246 273 278 265 171 187 186 198 201 191 195 198 202 221 225 220 217 220 228 232 234 237 240 241 246 258 259 259 257 256
57 35 55 47 40 67 72 160 199 283 282 280 284 263 265 264 264 264 230 206 210 206 216 223 208 198 196 195 206 214 223 229 230 233 237 242 245 249 254 257 259 259 257 254
122 26 48 328 14 6 239 276 230 248 282 302 317 335 321 324 259 259 242 233 228 224 223 229 232 231 223 216 217 220 220 222 226 229 233 238 243 248 251 253 253 251 248 247
237 29 344 354 318 294 274 259 259 284 291 282 253 286 336 343 325 277 260 250 257 244 240 239 241 242 240 235 234 232 234 240 246 249 249 249 251 251 252 253 254 255 255 255
249 252 169 303 282 275 203 268 292 310 281 271 276 293 300 316 281 279 282 273 274 264 250 250 249 245 246 247 247 247 245 246 255 258 263 265 267 265 259 258 257 256 254 255
250 248 231 257 270 270 260 284 279 255 292 293 293 293 292 284 284 287 281 281 290 279 261 257 256 249 248 251 253 258 259 260 260 260 261 263 263 263 259 258 258 258 257 255
254 232 229 200 237 262 222 271 236 276 285 293 293 287 285 281 276 275 274 277 280 283 288 295 276 239 239 249 257 261 262 262 262 260 258 259 258 256 255 254 254 254 254 254
261 215 217 217 234 266 280 278 292 291 291 296 292 290 284 276 271 267 264 262 270 277 281 291 297 297 279 253 275 275 275 270 266 263 259 256 253 251 250 251 252 253 253 254
271 261 251 267 263 266 279 286 297 304 304 306 302 291 281 275 265 256 254 254 260 263 266 272 282 288 283 277 276 278 281 277 271 263 259 256 254 251 248 248 250 253 254 253
264 271 267 269 271 275 282 288 305 307 309 310 308 302 298 279 260 253 245 246 248 244 251 261 274 284 289 283 278 284 286 284 280 269 260 255 251 250 246 245 247 250 248 246
287 265 258 271 272 271 290 301 309 311 316 316 315 316 312 299 262 247 238 239 240 243 248 258 271 282 285 283 281 282 286 281 275 264 254 245 238 239 244 244 248 249 245 246